Location: Unspecified
(0.0000°N, 0.0000°E)
Time: 05:19:22
(UTC+02:00)

ARIANE 5 R/B - Visible Passes

Search period start: 30 June 2016 00:00
Search period end: 10 July 2016 00:00
Orbit: 530 x 35687 km, 6.7° (Epoch: 28 June)

Date Brightness Start Highest point End Pass type
(mag) Time Alt. Az. Time Alt. Az. Time Alt. Az.
30 Jun 8.1 20:36:16 10° W 20:53:25 83° N 06:37:46 10° E visible
01 Jul 7.0 17:39:30 10° WSW 01:46:47 43° E 03:27:05 10° E visible
03 Jul 10.0 02:12:43 10° W 03:47:10 33° W 07:48:10 10° W visible
03 Jul 8.3 22:55:07 10° W 00:46:02 79° NW 08:55:16 10° ESE visible
04 Jul 7.7 19:54:44 10° W 20:08:04 84° N 05:55:19 10° E visible
05 Jul 10.0 20:52:02 10° E 01:04:49 35° E 02:39:20 10° E visible
07 Jul 6.7 01:24:25 10° W 03:05:35 42° W 11:10:23 10° ESE visible
07 Jul 8.6 22:12:33 10° W 23:21:27 81° N 08:13:47 10° E visible
08 Jul 7.3 19:13:20 10° W 19:23:53 84° N 05:12:27 10° E visible
